カタログに戻る

HULIANWANG DIGUI-02

運用中通信PO
NORAD 62324·PAYLOAD·🇨🇳 China

打ち上げ Dec 16, 2024 から Wenchang Space Launch Site

Loading…

次のパス (今後24時間)

TLE

最新Source: Space-Track

元期: Sep 14, 2026, 21:47 UTC

1 62324U 24240B   26257.90811952  .00000018  00000-0  77521-5 0  9992
2 62324  86.5024 313.1693 0001806  90.0057 270.1284 13.24413983 84527

AllMySatでHULIANWANG DIGUI-02をリアルタイム追跡

Download on the App Store